Wetbulb
46.79 47.63 47.61 47.91 47.61 47.03 45.40 44.46 42.68 39.58 39.02 37.31 33.97 33.24 32.40 32.90 35.11 36.53 35.68 34.83 34.61 33.46 33.74 33.04 31.76 32.06 31.70 30.53 30.09 30.53 30.80 31.82 30.26 29.39 30.09 30.14 29.20 29.94 30.20 30.99 30.37 30.14 30.72
46.53 46.54 46.10 46.63 46.49 45.51 43.50 41.88 39.70 38.14 37.80 36.65 32.33 31.34 31.02 31.68 31.58 34.98 33.69 33.30 33.23 31.84 31.89 31.60 30.44 28.99 29.31 28.52 28.68 29.04 30.39 30.52 29.76 27.33 28.17 28.11 27.86 29.93 29.51 28.72 28.25 28.66 29.36
45.77 45.17 44.75 44.92 44.77 44.28 43.25 41.21 38.98 39.03 36.78 34.94 32.09 30.77 29.84 30.04 30.18 32.39 33.46 32.91 32.82 32.71 31.77 30.84 29.41 28.71 26.85 26.94 27.43 28.44 29.16 26.74 27.93 27.03 27.02 27.32 27.63 28.53 27.97 28.80 28.89 29.01 28.98
44.54 43.73 43.56 43.55 43.55 43.55 42.48 39.59 37.06 37.71 34.46 32.37 31.56 30.43 29.66 29.41 29.43 29.94 31.33 31.72 31.82 31.45 31.00 30.56 28.89 27.77 26.90 26.51 26.59 27.64 27.43 26.79 26.22 25.40 25.59 26.00 26.77 27.57 26.59 25.44 26.18 29.35 27.99
42.89 42.47 42.40 42.63 42.60 42.66 40.82 37.10 35.38 34.90 32.98 31.96 30.06 29.22 28.94 28.68 28.40 28.85 28.84 30.02 29.56 29.09 28.91 28.30 28.47 28.00 28.85 27.91 27.09 27.65 26.81 26.24 25.74 25.32 24.46 24.99 25.44 25.28 24.21 26.84 24.70 26.37 27.40
42.00 41.49 42.09 41.18 38.83 37.69 36.67 34.77 32.83 32.48 30.46 29.28 28.50 28.14 27.58 27.87 31.39 31.92 29.50 28.05 28.27 27.63 26.92 27.23 27.64 27.63 27.51 29.19 29.77 29.74 28.58 27.33 26.47 26.17 25.38 24.38 25.12 25.54 26.16 25.02 24.38 23.03 21.82
39.74 38.81 37.91 36.64 34.89 34.98 34.54 33.19 31.75 31.08 29.94 28.15 28.10 28.05 27.37 27.85 31.94 32.40 31.06 27.92 27.60 27.54 27.02 26.88 26.64 26.90 26.99 27.37 30.09 30.60 29.72 29.61 29.36 26.58 24.54 25.29 25.37 26.72 26.52 24.63 23.96 23.23 22.53
37.04 36.69 36.06 34.84 34.15 33.92 32.98 32.06 31.36 30.20 28.86 27.74 27.38 27.53 27.33 27.17 32.44 32.39 29.99 27.93 28.15 28.07 27.84 28.78 29.28 27.59 25.96 25.44 25.76 26.47 27.66 28.57 29.06 29.14 28.60 28.30 28.82 28.75 27.26 26.02 25.16 24.63 24.15
35.36 35.62 34.92 34.15 33.12 32.33 31.32 31.50 31.05 29.44 28.25 28.06 27.87 27.24 26.89 27.54 32.68 32.76 30.25 28.00 27.28 26.57 28.61 29.15 29.00 27.80 27.44 28.64 25.28 25.08 25.25 25.20 27.16 29.60 30.22 30.28 30.09 29.77 28.96 27.57 25.14 20.42 20.19
33.91 34.21 33.66 33.30 32.23 31.04 31.53 30.97 31.49 30.49 28.43 26.92 26.81 27.28 26.75 29.32 33.00 32.97 30.62 27.84 27.27 27.26 28.59 28.46 27.95 28.20 28.67 29.06 28.01 26.08 23.73 24.82 25.46 25.19 24.62 26.06 27.55 27.41 28.39 26.92 26.24 22.29 21.51
32.25 31.71 31.66 32.08 31.35 31.87 31.46 31.30 30.25 28.95 26.89 26.23 25.88 26.53 26.90 29.62 31.59 33.29 33.11 29.33 28.86 29.32 30.56 29.05 27.93 30.72 30.94 29.85 30.10 27.78 27.22 28.26 27.10 26.54 24.83 24.65 24.68 24.39 24.26 24.91 24.43 22.79 20.60
30.01 29.50 29.23 29.88 30.51 30.64 29.45 29.68 28.80 28.04 26.38 25.71 25.25 25.48 26.81 27.63 30.80 33.18 33.93 32.28 32.75 31.94 31.43 30.48 29.13 30.12 30.77 31.30 30.26 30.37 30.63 30.31 29.81 28.52 25.87 25.16 24.24 23.38 23.60 23.04 21.96 21.41 21.22
27.48 26.60 28.20 29.60 30.17 29.80 29.44 28.54 28.49 28.17 27.23 26.64 26.17 25.75 25.70 27.02 28.52 32.26 33.34 34.29 34.30 32.12 31.99 30.92 30.07 30.39 30.73 30.43 30.92 31.03 29.69 29.37 28.21 26.57 25.52 24.21 22.85 22.08 21.23 19.79 19.66 19.27 18.33
27.56 27.64 28.20 28.49 28.93 29.40 30.00 29.96 29.49 28.88 28.35 27.70 27.91 28.13 28.10 27.62 28.07 29.67 31.27 33.41 33.36 32.99 33.02 31.34 30.58 30.00 29.49 29.07 26.84 28.54 28.36 27.49 25.93 24.58 23.21 22.24 20.43 18.78 18.21 18.25 16.39 15.88 14.34
29.51 28.97 29.32 29.21 29.50 28.94 29.59 30.11 30.07 31.68 31.85 30.94 31.17 31.40 30.07 26.79 27.06 28.25 28.63 29.60 30.88 31.36 25.83 25.44 25.18 25.09 24.93 24.90 24.31 23.86 23.87 23.14 21.95 21.95 20.06 18.82 17.63 17.28 16.39 16.36 14.51 12.83 10.59
28.99 28.90 29.25 29.52 29.43 28.59 27.94 26.50 30.41 31.53 32.24 31.66 31.75 31.71 30.04 29.63 30.70 30.78 30.56 30.68 30.34 29.56 23.10 23.74 23.59 23.87 23.50 22.88 20.99 20.27 19.50 17.58 17.99 16.96 16.35 15.46 14.07 13.17 12.38 12.44 12.55 9.84 7.88
29.21 27.08 26.29 26.29 26.33 25.91 25.46 26.48 25.22 27.83 28.50 27.87 27.78 28.21 27.12 27.00 27.84 28.32 29.36 29.08 27.68 27.10 23.41 21.92 22.60 21.36 20.22 18.62 17.25 15.70 14.78 14.49 11.81 12.01 11.73 11.07 10.54 9.77 8.41 8.25 8.35 7.34 5.72
23.93 23.76 27.17 26.37 26.40 25.74 25.62 25.55 27.02 27.03 24.76 24.77 26.17 25.85 26.12 26.73 27.02 28.08 28.26 24.95 21.17 20.32 20.37 19.43 18.15 16.95 15.54 13.75 12.15 11.30 10.50 9.56 9.05 9.22 8.63 7.96 6.68 6.42 5.77 5.55 5.46 3.39 3.37
21.38 20.66 21.46 21.37 21.99 21.92 22.70 23.07 23.63 23.66 23.72 21.63 22.25 21.98 25.28 23.70 22.34 21.94 20.78 20.12 18.19 15.85 14.30 13.70 13.48 11.89 10.51 9.41 7.74 6.46 5.87 6.27 6.32 5.52 5.56 4.01 4.38 4.13 3.60 3.49 3.12 1.31 0.65
15.90 15.11 18.53 19.40 19.43 19.29 19.68 19.87 20.22 20.38 20.17 20.32 21.69 17.92 16.22 18.59 18.08 13.42 11.41 12.19 13.46 12.73 11.30 10.42 7.56 5.94 5.17 4.41 3.75 3.47 3.41 2.49 3.25 3.33 3.54 3.34 3.47 2.91 2.36 1.62 1.39 1.07 1.39
14.96 13.63 12.83 16.22 16.72 17.37 17.73 18.27 17.99 18.03 17.25 16.33 14.97 13.20 12.43 15.71 12.98 11.95 9.98 9.10 9.03 8.14 6.18 5.77 3.59 2.57 1.75 1.59 1.44 1.80 1.23 3.81 2.30 1.43 1.66 1.70 1.01 0.33 1.19 1.57 1.28 0.54 -0.16
11.96 11.75 12.61 12.08 12.24 12.75 12.79 13.66 14.41 14.32 13.42 12.76 11.59 12.63 14.10 11.42 10.34 8.78 7.37 5.58 3.84 3.64 3.19 3.26 2.62 2.09 1.41 0.72 1.18 1.94 1.33 1.22 1.71 0.31 0.47 -1.00 -1.09 -0.04 -0.91 -0.51 -0.99 -0.62 -0.96
9.83 9.49 8.85 7.90 7.99 6.96 9.03 9.44 10.06 10.76 10.83 11.37 10.58 9.00 7.97 7.57 6.18 5.58 4.84 3.31 1.82 1.13 -0.18 -1.20 0.04 -0.73 -0.75 -2.49 -0.30 0.87 0.87 0.87 1.16 0.95 -0.52 -0.77 -1.39 -0.94 -1.34 -1.59 -1.69 -3.27 -2.95
7.03 7.11 6.46 5.79 5.60 6.59 6.77 6.43 5.63 2.51 5.64 5.65 5.69 5.22 4.71 3.30 3.05 2.43 1.80 1.97 0.43 -0.14 -1.49 -2.60 -2.73 -2.08 -1.05 -1.85 -1.87 -2.41 -2.74 -2.17 -0.59 -1.90 -2.87 -2.06 -2.01 -2.29 -3.12 -2.88 -3.19 -3.82 -4.17
3.37 3.11 2.02 2.04 2.16 2.07 3.37 2.45 2.32 1.69 1.91 2.07 1.95 1.58 1.94 1.27 0.67 0.57 0.78 -0.80 -2.26 -1.56 -1.81 -2.71 -2.98 -2.88 -3.58 -4.44 -3.68 -3.72 -3.59 -2.35 -1.91 -4.39 -4.23 -4.46 -4.27 -4.24 -5.04 -4.87 -4.67 -4.40 -6.47
1.22 1.07 0.54 1.06 1.16 0.75 1.23 1.59 1.54 1.04 0.92 1.48 0.91 0.55 0.36 0.32 0.30 0.42 -0.30 -2.11 -3.09 -3.01 -2.94 -2.02 -2.27 -3.79 -3.92 -3.61 -4.01 -3.69 -4.39 -3.14 -5.31 -6.80 -3.95 -3.72 -4.67 -4.89 -5.11 -6.64 -7.78 -7.43 -7.50
MSLP
1013.64 1014.01 1014.36 1014.60 1015.19 1015.71 1016.23 1016.78 1017.38 1017.99 1018.75 1019.43 1020.24 1020.61 1020.98 1021.72 1022.15 1022.63 1023.28 1024.04 1024.67 1025.35 1026.14 1026.72 1027.33 1027.92 1028.55 1029.25 1029.75 1029.98 1029.96 1030.11 1030.23 1031.08 1031.50 1032.04 1032.23 1032.12 1032.15 1032.09 1032.21 1032.21 1031.93
1013.14 1013.44 1014.00 1014.39 1014.71 1015.11 1015.63 1016.18 1016.90 1017.54 1018.27 1018.87 1019.70 1020.40 1020.82 1021.37 1021.85 1022.38 1022.82 1023.58 1024.29 1025.16 1025.88 1026.59 1027.28 1028.12 1028.86 1029.58 1030.11 1030.02 1030.30 1030.54 1030.61 1030.94 1031.35 1031.75 1031.79 1031.55 1031.63 1031.77 1031.95 1032.03 1031.71
1012.84 1012.86 1013.23 1013.51 1013.88 1014.33 1015.00 1015.75 1016.53 1017.22 1017.95 1018.72 1019.39 1020.05 1020.51 1021.04 1021.64 1022.17 1022.80 1023.38 1024.21 1024.80 1025.49 1026.15 1027.08 1027.95 1028.83 1029.43 1029.96 1029.98 1030.34 1030.84 1031.06 1031.17 1031.29 1031.65 1031.51 1031.46 1031.41 1031.46 1031.38 1031.22 1030.95
1012.37 1012.36 1012.45 1012.82 1013.36 1013.98 1014.72 1015.35 1016.14 1016.89 1017.65 1018.35 1019.03 1019.68 1020.19 1020.71 1021.36 1021.96 1022.55 1023.42 1023.91 1024.72 1025.43 1026.10 1026.94 1027.72 1028.42 1029.26 1029.66 1029.89 1030.36 1030.74 1031.07 1031.21 1031.23 1031.15 1031.08 1031.12 1031.41 1031.12 1030.78 1030.29 1030.14
1011.64 1011.77 1011.73 1012.39 1012.97 1013.61 1014.31 1015.06 1015.83 1016.51 1017.16 1017.89 1018.68 1019.45 1020.00 1020.43 1020.88 1021.42 1022.13 1022.91 1023.71 1024.40 1025.42 1026.18 1026.93 1027.76 1028.29 1028.87 1029.31 1029.56 1030.14 1030.43 1030.72 1030.91 1030.95 1030.80 1030.53 1030.65 1030.73 1030.40 1030.33 1030.04 1029.69
1010.78 1010.88 1011.43 1012.00 1012.83 1013.48 1014.20 1014.83 1015.58 1016.25 1016.95 1017.68 1018.21 1018.77 1019.43 1019.90 1020.52 1021.27 1022.00 1022.78 1023.72 1024.43 1025.13 1026.08 1026.88 1027.92 1028.07 1028.58 1028.99 1029.16 1029.66 1030.04 1030.13 1030.23 1030.29 1030.12 1029.91 1030.01 1030.30 1030.23 1030.05 1029.83 1029.10
1010.10 1010.62 1011.17 1011.78 1012.48 1013.22 1013.99 1014.68 1015.30 1015.95 1016.73 1017.36 1018.04 1018.59 1019.14 1019.66 1020.23 1021.06 1021.87 1022.87 1023.77 1024.60 1025.26 1026.04 1027.04 1027.26 1027.76 1028.19 1028.50 1028.80 1029.13 1029.40 1029.50 1029.73 1029.70 1029.59 1029.51 1029.46 1029.75 1029.76 1029.68 1029.45 1029.11
1009.80 1010.27 1011.00 1011.67 1012.32 1012.99 1013.75 1014.45 1015.23 1015.91 1016.51 1017.17 1017.83 1018.42 1019.07 1019.61 1020.15 1020.81 1021.75 1022.94 1023.86 1024.45 1025.30 1025.91 1026.46 1026.77 1027.38 1027.97 1028.22 1028.36 1028.61 1028.82 1028.96 1029.07 1029.08 1029.19 1029.18 1029.08 1029.34 1029.29 1029.14 1028.89 1028.90
1009.92 1010.31 1010.71 1011.35 1012.07 1012.68 1013.33 1014.08 1014.78 1015.60 1016.39 1017.01 1017.69 1018.49 1019.24 1019.80 1020.57 1021.12 1022.21 1023.20 1023.99 1024.32 1024.95 1025.63 1025.80 1026.43 1026.84 1027.29 1027.75 1027.92 1028.07 1028.23 1028.49 1028.47 1028.39 1028.43 1028.49 1028.54 1028.63 1028.64 1028.37 1028.75 1028.05
1010.15 1010.58 1010.95 1011.45 1012.12 1012.65 1013.26 1014.05 1014.91 1015.74 1016.47 1017.21 1017.95 1018.44 1019.18 1019.93 1020.49 1021.20 1022.27 1023.19 1023.68 1024.23 1024.75 1025.23 1025.30 1025.82 1026.57 1026.59 1026.74 1027.18 1027.36 1027.39 1027.95 1028.18 1028.30 1028.16 1028.03 1027.90 1027.87 1028.03 1028.00 1027.83 1027.71
1010.72 1011.25 1011.60 1011.94 1012.50 1013.02 1013.68 1014.35 1014.96 1015.91 1016.76 1017.62 1018.32 1018.94 1019.33 1019.55 1020.02 1020.61 1021.34 1022.07 1022.57 1023.22 1023.58 1024.26 1024.64 1025.01 1025.50 1025.99 1025.83 1026.07 1026.23 1026.72 1027.26 1027.49 1027.58 1027.69 1027.66 1027.50 1027.40 1027.45 1027.60 1027.67 1027.42
1011.12 1011.70 1012.24 1012.56 1013.00 1013.61 1014.15 1014.85 1015.39 1015.98 1016.88 1017.64 1018.32 1018.90 1019.39 1019.72 1019.89 1020.38 1020.96 1021.47 1021.85 1022.39 1022.71 1023.30 1023.83 1024.28 1024.62 1024.93 1025.04 1025.17 1025.51 1025.89 1026.36 1026.58 1026.75 1026.73 1026.78 1026.96 1026.98 1027.25 1027.47 1027.48 1027.41
1011.89 1012.31 1012.60 1012.98 1013.37 1014.00 1014.47 1015.13 1015.77 1016.35 1016.92 1017.61 1018.17 1018.75 1019.33 1019.84 1020.21 1020.44 1020.70 1021.22 1021.71 1021.99 1022.20 1022.62 1023.22 1023.62 1023.87 1024.06 1024.24 1024.43 1024.98 1025.44 1025.76 1025.97 1026.07 1026.22 1026.62 1026.86 1027.11 1027.30 1027.32 1027.35 1027.36
1012.47 1012.92 1013.37 1013.68 1014.14 1014.26 1014.58 1015.16 1015.57 1016.16 1016.72 1017.18 1017.76 1018.25 1018.81 1019.41 1019.95 1020.23 1020.61 1020.80 1021.41 1021.89 1022.07 1022.32 1022.62 1022.91 1023.29 1023.62 1024.15 1024.39 1024.83 1025.28 1025.57 1025.72 1025.99 1026.38 1026.66 1026.97 1026.94 1026.95 1026.98 1027.06 1027.02
1013.00 1013.60 1014.01 1014.58 1014.92 1015.06 1015.35 1015.58 1015.82 1016.24 1016.58 1016.93 1017.31 1017.87 1018.43 1018.99 1019.11 1019.38 1019.82 1020.26 1020.83 1021.44 1022.03 1022.37 1022.60 1022.92 1023.27 1023.74 1024.32 1024.79 1025.16 1025.51 1025.77 1026.05 1026.27 1026.44 1026.61 1026.65 1026.68 1026.86 1027.04 1027.16 1027.10
1013.15 1013.98 1014.43 1014.87 1015.17 1015.66 1016.18 1016.54 1016.52 1016.67 1016.92 1017.31 1017.53 1017.93 1018.54 1018.95 1019.12 1019.31 1019.69 1019.99 1020.62 1021.15 1021.82 1022.15 1022.59 1022.99 1023.42 1023.95 1024.49 1024.90 1025.40 1025.94 1026.26 1026.50 1026.62 1026.71 1026.74 1026.79 1026.82 1027.01 1027.12 1027.38 1027.31
1013.74 1013.55 1014.57 1015.12 1015.60 1016.22 1016.51 1016.50 1016.73 1017.39 1017.69 1017.80 1018.24 1018.25 1018.56 1018.93 1019.08 1019.00 1019.43 1019.99 1020.67 1021.17 1021.60 1022.19 1022.49 1023.09 1023.71 1024.33 1024.87 1025.37 1025.84 1026.36 1026.82 1026.92 1027.00 1027.09 1027.20 1027.26 1027.37 1027.36 1027.39 1027.51 1027.48
1014.96 1014.99 1015.02 1015.24 1015.72 1016.54 1016.70 1016.89 1017.18 1017.34 1017.92 1018.47 1018.88 1018.83 1019.14 1019.31 1019.39 1019.36 1019.82 1020.76 1021.47 1021.91 1022.23 1022.58 1023.12 1023.68 1024.31 1024.87 1025.47 1025.95 1026.37 1026.75 1027.01 1027.15 1027.27 1027.40 1027.60 1027.63 1027.63 1027.63 1027.69 1027.74 1027.69
1015.79 1016.19 1016.23 1016.13 1016.38 1016.82 1017.28 1017.54 1017.89 1017.98 1018.47 1019.29 1019.58 1019.87 1019.87 1020.37 1020.66 1020.72 1021.13 1021.52 1022.15 1022.69 1023.11 1023.49 1023.94 1024.43 1025.03 1025.59 1026.06 1026.49 1026.81 1027.00 1027.17 1027.30 1027.40 1027.63 1027.80 1027.90 1027.85 1027.85 1027.85 1027.90 1027.88
1016.65 1016.71 1016.53 1016.77 1017.13 1017.64 1017.75 1018.10 1018.39 1018.72 1019.31 1019.46 1020.07 1020.85 1021.15 1021.04 1021.38 1021.98 1022.49 1022.83 1023.16 1023.53 1023.92 1024.23 1024.82 1025.32 1025.71 1026.12 1026.51 1026.79 1026.99 1027.18 1027.19 1027.28 1027.44 1027.57 1027.82 1027.87 1027.72 1027.82 1027.80 1027.71 1027.56
1017.42 1017.52 1017.84 1017.59 1017.93 1018.14 1018.42 1018.67 1018.91 1019.34 1019.71 1020.26 1021.02 1021.47 1021.73 1021.63 1022.08 1022.55 1022.98 1023.41 1023.83 1024.15 1024.52 1024.90 1025.39 1025.83 1026.21 1026.48 1026.63 1026.68 1026.80 1026.71 1026.94 1027.11 1027.46 1027.54 1027.77 1027.71 1027.72 1027.64 1027.60 1027.56 1027.45
1018.49 1018.82 1018.94 1019.11 1019.46 1019.69 1019.91 1020.11 1020.07 1020.20 1020.65 1021.09 1021.60 1021.87 1022.17 1022.47 1022.64 1023.10 1023.47 1023.96 1024.44 1024.82 1025.07 1025.23 1025.51 1025.90 1026.31 1026.47 1026.55 1026.44 1026.54 1026.60 1026.82 1027.02 1027.30 1027.49 1027.56 1027.48 1027.58 1027.54 1027.51 1027.29 1027.18
1019.73 1019.82 1020.11 1020.46 1020.69 1020.79 1020.90 1021.07 1021.21 1021.42 1021.77 1022.13 1022.34 1022.64 1022.99 1023.09 1023.35 1023.68 1024.09 1024.58 1024.97 1025.23 1025.55 1025.73 1025.72 1025.89 1026.24 1026.51 1026.52 1026.34 1026.36 1026.33 1026.59 1026.75 1027.03 1027.17 1027.19 1027.20 1027.27 1027.16 1027.17 1027.22 1027.05
1021.06 1021.32 1021.70 1021.93 1022.01 1022.01 1022.07 1022.21 1022.46 1022.66 1022.87 1023.09 1023.26 1023.51 1023.64 1023.86 1024.10 1024.33 1024.58 1024.82 1025.13 1025.33 1025.57 1025.77 1025.80 1025.71 1025.69 1025.92 1026.05 1026.22 1026.41 1026.44 1026.56 1026.71 1026.94 1026.91 1026.84 1026.86 1027.01 1026.93 1026.92 1026.88 1026.87
1022.23 1022.55 1022.85 1023.17 1023.27 1023.32 1023.36 1023.50 1023.54 1023.58 1023.71 1023.84 1023.97 1024.11 1024.14 1024.25 1024.39 1024.46 1024.55 1024.87 1025.06 1025.08 1025.16 1025.35 1025.38 1025.31 1025.38 1025.48 1025.48 1025.60 1025.78 1025.89 1026.07 1026.32 1026.53 1026.64 1026.56 1026.51 1026.57 1026.57 1026.55 1026.48 1026.64
1022.93 1023.36 1023.73 1023.91 1024.12 1024.31 1024.25 1024.11 1024.07 1024.08 1024.13 1024.20 1024.30 1024.31 1024.32 1024.30 1024.30 1024.36 1024.38 1024.53 1024.63 1024.58 1024.55 1024.56 1024.59 1024.66 1024.67 1024.72 1024.75 1024.89 1025.08 1025.22 1025.43 1025.66 1025.77 1025.78 1025.83 1025.87 1025.95 1025.99 1026.09 1026.14 1026.18
Wind_Speed
15 15 16 15 17 15 13 14 12 10 13 13 11 11 12 12 11 12 11 12 12 11 10 10 10 9 6 5 4 3 3 3 3 3 3 3 4 6 5 4 5 8 8
13 14 15 15 16 16 14 13 11 12 13 14 12 11 11 11 11 13 14 13 13 13 12 12 11 6 9 6 4 6 5 4 3 5 3 4 5 4 5 7 6 6 9
13 14 15 16 16 17 16 13 11 13 13 12 11 12 12 12 12 11 13 13 12 12 13 13 13 12 7 5 5 6 5 3 3 3 3 3 3 4 6 7 8 9 7
13 15 15 16 16 15 14 12 11 12 12 12 12 12 12 12 11 10 11 11 11 10 10 10 12 10 9 8 6 7 6 5 5 5 5 6 5 4 5 7 8 7 9
15 15 16 13 14 14 13 11 10 12 11 11 12 11 11 12 10 13 12 12 12 12 10 9 10 8 11 9 6 8 8 6 5 5 6 6 7 7 7 5 8 8 10
15 15 13 12 11 11 10 11 11 11 10 11 13 14 14 10 19 21 14 11 10 11 11 10 8 8 8 13 15 10 10 8 7 5 7 8 10 7 7 7 8 9 8
12 9 9 10 11 12 10 11 11 12 11 12 12 12 13 12 23 22 17 8 9 9 10 9 7 5 8 8 14 15 14 16 14 7 10 10 10 9 8 10 10 10 10
10 9 9 10 10 10 10 11 10 9 11 10 10 11 10 9 23 23 19 8 7 8 9 8 7 7 10 10 9 8 8 9 11 9 12 11 11 9 10 10 11 11 9
8 9 9 10 10 10 11 11 9 9 8 8 8 9 9 8 22 21 15 8 8 8 8 7 6 7 12 17 8 9 9 9 11 19 20 21 21 20 17 9 9 8 10
5 5 6 7 8 9 9 9 8 7 7 7 8 9 11 11 20 21 16 7 8 7 5 7 12 11 14 18 12 9 10 9 8 7 7 11 14 12 16 9 8 9 9
3 4 5 6 6 7 8 8 8 9 9 9 9 8 9 12 16 24 23 10 9 9 8 7 6 15 17 19 20 10 12 6 8 8 8 8 8 7 7 7 8 8 9
6 6 6 7 6 6 9 8 10 11 10 9 9 7 6 7 11 21 23 18 16 9 9 5 5 14 16 19 17 19 19 15 7 7 7 7 6 7 6 6 8 8 8
6 6 7 8 8 8 10 10 8 8 7 8 7 7 7 7 8 21 24 23 19 10 6 7 12 14 16 14 18 17 11 6 6 7 6 6 4 4 4 4 6 8 9
8 7 6 7 7 7 6 6 7 7 7 7 8 8 7 7 8 7 8 9 14 9 7 8 10 11 11 8 3 7 4 4 4 5 4 2 2 4 5 5 6 6 7
8 6 7 6 6 6 5 5 4 3 5 5 5 5 6 6 8 11 11 7 7 8 4 2 3 3 5 5 4 3 3 3 4 2 2 3 5 5 6 5 6 7 8
8 5 5 5 5 5 6 5 9 7 9 7 6 5 2 2 9 16 16 16 13 11 3 5 6 6 6 5 5 4 3 3 1 1 3 4 5 6 6 6 6 6 8
7 7 5 4 4 4 4 4 6 7 11 9 4 3 4 3 7 8 10 10 9 11 5 5 5 5 5 4 4 3 3 2 1 2 3 3 4 5 5 6 6 6 8
6 5 5 5 4 4 3 4 4 5 4 5 7 6 6 7 7 9 10 11 4 3 3 3 4 4 4 4 3 3 3 3 2 2 2 1 2 3 4 5 5 6 7
6 4 4 5 4 4 4 4 4 4 5 5 4 7 9 16 15 14 9 4 3 3 3 3 3 3 3 3 3 2 2 2 2 3 3 2 2 3 4 4 4 5 6
6 7 6 5 5 4 4 4 4 4 5 4 4 4 2 1 2 3 4 3 2 2 2 3 3 3 3 3 3 3 3 4 4 3 2 2 3 3 4 4 4 5 5
5 5 6 5 5 4 3 4 4 4 4 4 3 3 4 3 3 2 2 2 2 2 3 2 3 3 3 3 3 3 3 3 3 2 3 3 3 4 4 4 5 5 5
6 5 5 6 4 4 4 3 2 3 3 4 3 3 4 1 2 2 2 2 2 2 2 2 3 3 3 4 4 3 3 3 3 3 4 3 4 4 4 5 5 5 5
6 6 6 5 5 4 4 4 3 3 2 2 3 3 1 1 1 1 2 2 2 2 2 2 3 3 3 3 4 4 4 4 4 4 4 4 4 5 5 5 5 5 5
7 7 6 5 5 4 4 4 4 4 3 2 1 0 0 0 1 2 2 2 2 3 3 3 4 5 4 4 4 4 5 5 4 4 6 5 5 5 6 6 6 6 5
7 7 7 6 6 5 4 3 3 2 2 1 1 2 2 2 3 3 3 3 3 4 5 5 5 6 8 9 8 8 8 10 9 6 5 7 8 8 7 6 6 6 6
7 7 5 4 4 3 3 3 2 2 2 2 3 3 3 4 4 4 4 4 5 5 6 6 7 10 10 9 10 11 11 11 10 11 8 7 8 7 7 8 8 6 6
Wind_Direction
211 212 210 207 204 199 201 200 195 178 188 182 181 180 171 175 180 182 172 165 166 158 160 155 142 142 136 129 109 141 150 174 195 145 197 183 232 245 247 278 297 298 291
211 207 212 209 205 204 202 194 184 187 191 185 176 178 170 174 171 180 168 171 166 164 160 154 149 143 141 135 154 170 178 185 188 204 182 220 236 265 282 288 284 281 282
216 206 208 210 205 207 204 191 184 192 192 183 176 180 174 173 172 178 175 167 166 164 164 162 157 155 147 149 183 177 180 172 208 218 226 231 272 282 283 275 274 273 273
217 210 212 210 211 209 202 189 182 188 183 181 184 183 180 172 173 169 168 172 165 164 164 157 158 160 152 167 193 187 178 184 203 225 243 256 259 277 272 280 280 275 290
216 217 216 208 206 205 196 185 179 184 186 184 176 181 176 175 177 172 171 169 166 158 158 151 159 152 159 185 189 189 187 197 206 224 242 253 254 253 253 280 282 291 290
216 220 212 204 195 194 186 178 175 181 177 176 183 181 181 186 183 179 168 165 165 162 158 159 151 166 185 212 216 204 200 197 210 218 240 246 257 256 263 272 283 293 301
208 203 195 183 184 189 184 180 185 185 177 185 187 185 189 182 180 176 163 154 159 167 161 159 161 171 181 211 224 227 226 228 231 229 246 247 263 261 268 272 273 274 273
200 192 185 183 187 183 181 186 184 180 184 184 187 187 180 178 177 166 152 149 167 164 165 160 177 176 200 203 211 227 232 230 233 232 236 251 259 270 263 266 274 277 277
199 197 183 180 180 178 183 184 176 171 172 176 171 167 161 164 168 160 153 161 164 164 170 182 170 202 220 210 209 227 231 238 243 247 253 262 264 263 255 257 246 250 264
194 188 168 169 172 175 173 168 159 157 151 139 140 147 142 151 167 166 166 172 171 172 182 208 200 204 223 228 217 215 237 240 229 236 252 264 268 268 269 245 263 256 269
122 126 139 152 152 150 141 142 138 134 128 131 133 146 154 168 173 180 182 174 177 184 201 207 206 221 225 231 235 225 234 242 245 243 243 249 249 250 249 245 237 253 264
104 110 115 114 115 126 130 129 132 134 137 146 147 150 166 173 184 188 192 193 194 201 208 207 197 211 224 235 237 238 244 245 236 236 234 249 249 253 253 250 249 253 256
98 100 109 113 121 133 134 135 140 143 143 152 162 166 172 175 192 200 202 212 210 214 210 196 199 213 229 239 240 244 247 246 246 252 258 269 260 279 292 276 265 267 268
92 97 103 118 131 134 134 146 148 157 163 166 176 186 184 188 200 207 216 224 227 227 220 212 215 218 219 221 212 244 244 242 256 264 271 285 306 277 283 294 291 294 284
109 113 117 117 116 117 111 132 150 155 175 173 180 184 177 191 211 199 197 198 205 216 124 111 154 171 171 174 175 194 215 230 248 251 273 286 288 291 293 302 299 299 288
114 103 109 122 114 120 118 87 72 108 100 95 142 168 158 140 185 203 210 212 211 199 168 189 195 201 209 209 207 193 185 178 163 270 278 284 293 302 308 314 303 291 291
122 123 112 113 118 136 139 137 114 94 84 75 88 145 177 200 203 202 201 199 198 197 211 216 215 202 189 180 169 167 169 148 53 258 265 278 292 298 306 300 297 296 291
102 99 126 127 126 136 131 122 138 151 139 90 76 88 124 118 128 146 149 112 100 82 164 169 165 160 157 156 154 172 179 183 206 219 225 235 258 275 281 280 284 285 288
99 98 100 98 94 110 123 125 125 119 130 126 115 73 72 90 80 73 76 84 129 133 129 136 134 139 142 150 156 168 185 197 185 185 180 190 216 245 260 269 272 271 285
88 93 97 103 107 109 114 122 126 130 144 140 142 123 102 89 78 56 56 65 89 115 141 139 135 140 150 163 169 178 188 188 183 189 203 214 237 243 254 257 259 273 275
81 74 76 87 92 102 118 135 137 144 144 144 140 138 133 152 146 147 147 144 149 147 146 146 145 152 165 176 189 192 202 208 197 204 223 225 230 242 243 257 262 256 264
68 66 57 62 59 59 60 66 92 124 142 152 149 199 123 149 143 157 156 154 143 123 121 159 171 184 189 198 206 211 219 223 220 216 232 232 235 238 242 251 257 258 262
70 73 69 66 71 76 67 59 63 72 104 126 138 138 129 107 129 166 184 163 173 188 178 201 209 202 204 215 228 235 237 232 231 222 228 235 231 241 238 247 247 248 253
58 60 62 55 44 57 56 54 56 49 47 61 53 359 284 284 242 233 227 211 215 221 221 225 231 233 229 227 225 226 235 243 238 230 227 239 241 233 242 242 245 244 254
64 60 53 42 35 33 42 44 46 41 32 350 287 270 258 242 241 239 232 227 233 238 235 231 236 242 239 236 237 233 235 242 233 219 219 228 240 243 239 242 248 247 245
64 61 56 47 40 20 7 358 351 327 301 281 264 258 262 259 258 257 248 240 241 240 238 237 237 235 242 246 246 243 239 236 230 225 222 225 229 235 232 232 234 236 239